Year,Month,Day,Hour,Minute,Value (Times are PST for temperature in C)
2011,02,24,00,00,-0.80
2011,02,24,00,01,-0.80
2011,02,24,00,02,-0.90
2011,02,24,00,03,-0.90
2011,02,24,00,04,-0.90
2011,02,24,00,05,-0.90
2011,02,24,00,06,-0.90
2011,02,24,00,07,-0.90
2011,02,24,00,08,-0.80
2011,02,24,00,09,-0.80
2011,02,24,00,10,-0.80
2011,02,24,00,11,-0.80
2011,02,24,00,12,-0.80
2011,02,24,00,13,-0.80
2011,02,24,00,17,-0.90
2011,02,24,00,18,-0.90
2011,02,24,00,19,-0.90
2011,02,24,00,20,-0.90
2011,02,24,00,21,-0.90
2011,02,24,00,22,-0.90
2011,02,24,00,23,-0.90
2011,02,24,00,24,-0.90
2011,02,24,00,25,-0.90
2011,02,24,00,26,-0.90
2011,02,24,00,27,-0.90
2011,02,24,00,28,-0.90
2011,02,24,00,29,-0.90
2011,02,24,00,30,-0.90
2011,02,24,00,31,-0.90
2011,02,24,00,32,-0.90
2011,02,24,00,33,-0.90
2011,02,24,00,34,-0.90
2011,02,24,00,35,-1.00
2011,02,24,00,36,-1.00
2011,02,24,00,37,-1.00
2011,02,24,00,38,-1.00
2011,02,24,00,39,-1.00
2011,02,24,00,40,-1.00
2011,02,24,00,41,-1.00
2011,02,24,00,42,-1.00
2011,02,24,00,43,-1.00
2011,02,24,00,44,-1.10
2011,02,24,00,45,-1.10
2011,02,24,00,46,-1.10
2011,02,24,00,47,-1.10
2011,02,24,00,48,-1.10
2011,02,24,00,49,-1.10
2011,02,24,00,50,-1.10
2011,02,24,00,51,-1.10
2011,02,24,00,52,-1.10
2011,02,24,00,53,-1.10
2011,02,24,00,54,-1.10
2011,02,24,00,55,-1.10
2011,02,24,00,56,-1.20
2011,02,24,00,57,-1.20
2011,02,24,00,58,-1.20
2011,02,24,00,59,-1.20
2011,02,24,01,00,-1.20
2011,02,24,01,01,-1.20
2011,02,24,01,02,-1.20
2011,02,24,01,03,-1.20
2011,02,24,01,04,-1.20
2011,02,24,01,05,-1.20
2011,02,24,01,06,-1.20
2011,02,24,01,07,-1.20
2011,02,24,01,08,-1.20
2011,02,24,01,09,-1.20
2011,02,24,01,10,-1.20
2011,02,24,01,11,-1.20
2011,02,24,01,12,-1.20
2011,02,24,01,13,-1.30
2011,02,24,01,14,-1.30
2011,02,24,01,15,-1.30
2011,02,24,01,16,-1.30
2011,02,24,01,17,-1.30
2011,02,24,01,18,-1.30
2011,02,24,01,19,-1.30
2011,02,24,01,20,-1.30
2011,02,24,01,21,-1.30
2011,02,24,01,22,-1.30
2011,02,24,01,23,-1.30
2011,02,24,01,24,-1.30
2011,02,24,01,25,-1.30
2011,02,24,01,26,-1.30
2011,02,24,01,27,-1.30
2011,02,24,01,28,-1.30
2011,02,24,01,29,-1.30
2011,02,24,01,30,-1.30
2011,02,24,01,31,-1.30
2011,02,24,01,32,-1.30
2011,02,24,01,33,-1.30
2011,02,24,01,34,-1.40
2011,02,24,01,35,-1.40
2011,02,24,01,36,-1.40
2011,02,24,01,37,-1.40
2011,02,24,01,38,-1.40
2011,02,24,01,39,-1.40
2011,02,24,01,40,-1.40
2011,02,24,01,41,-1.40
2011,02,24,01,42,-1.40
2011,02,24,01,43,-1.40
2011,02,24,01,44,-1.40
2011,02,24,01,45,-1.40
2011,02,24,01,46,-1.40
2011,02,24,01,47,-1.40
2011,02,24,01,48,-1.40
2011,02,24,01,49,-1.40
2011,02,24,01,50,-1.40
2011,02,24,01,51,-1.50
2011,02,24,01,52,-1.50
2011,02,24,01,53,-1.50
2011,02,24,01,54,-1.50
2011,02,24,01,55,-1.50
2011,02,24,01,56,-1.50
2011,02,24,01,57,-1.50
2011,02,24,01,58,-1.50
2011,02,24,01,59,-1.50
2011,02,24,02,00,-1.60
2011,02,24,02,01,-1.60
2011,02,24,02,02,-1.60
2011,02,24,02,03,-1.60
2011,02,24,02,04,-1.60
2011,02,24,02,05,-1.60
2011,02,24,02,06,-1.60
2011,02,24,02,07,-1.60
2011,02,24,02,08,-1.60
2011,02,24,02,09,-1.60
2011,02,24,02,10,-1.60
2011,02,24,02,11,-1.60
2011,02,24,02,12,-1.60
2011,02,24,02,13,-1.60
2011,02,24,02,14,-1.60
2011,02,24,02,15,-1.60
2011,02,24,02,16,-1.60
2011,02,24,02,17,-1.60
2011,02,24,02,18,-1.60
2011,02,24,02,19,-1.70
2011,02,24,02,20,-1.70
2011,02,24,02,21,-1.70
2011,02,24,02,22,-1.70
2011,02,24,02,23,-1.70
2011,02,24,02,24,-1.70
2011,02,24,02,25,-1.70
2011,02,24,02,26,-1.70
2011,02,24,02,27,-1.70
2011,02,24,02,28,-1.70
2011,02,24,02,29,-1.70
2011,02,24,02,30,-1.70
2011,02,24,02,31,-1.70
2011,02,24,02,32,-1.70
2011,02,24,02,33,-1.70
2011,02,24,02,34,-1.70
2011,02,24,02,35,-1.70
2011,02,24,02,36,-1.70
2011,02,24,02,37,-1.70
2011,02,24,02,38,-1.70
2011,02,24,02,39,-1.70
2011,02,24,02,40,-1.70
2011,02,24,02,41,-1.70
2011,02,24,02,42,-1.80
2011,02,24,02,43,-1.80
2011,02,24,02,44,-1.80
2011,02,24,02,45,-1.80
2011,02,24,02,46,-1.80
2011,02,24,02,47,-1.80
2011,02,24,02,48,-1.80
2011,02,24,02,49,-1.80
2011,02,24,02,50,-1.80
2011,02,24,02,51,-1.80
2011,02,24,02,52,-1.80
2011,02,24,02,53,-1.80
2011,02,24,02,54,-1.80
2011,02,24,02,55,-1.80
2011,02,24,02,56,-1.80
2011,02,24,02,57,-1.80
2011,02,24,02,58,-1.80
2011,02,24,02,59,-1.90
2011,02,24,03,00,-1.90
2011,02,24,03,01,-1.90
2011,02,24,03,02,-1.90
2011,02,24,03,03,-1.90
2011,02,24,03,04,-1.90
2011,02,24,03,05,-1.90
2011,02,24,03,06,-1.90
2011,02,24,03,07,-1.90
2011,02,24,03,08,-1.90
2011,02,24,03,09,-1.90
2011,02,24,03,10,-1.90
2011,02,24,03,11,-1.90
2011,02,24,03,12,-2.00
2011,02,24,03,13,-2.00
2011,02,24,03,14,-2.00
2011,02,24,03,15,-2.00
2011,02,24,03,16,-2.00
2011,02,24,03,17,-2.00
2011,02,24,03,18,-2.00
2011,02,24,03,19,-2.00
2011,02,24,03,20,-2.00
2011,02,24,03,21,-2.00
2011,02,24,03,22,-2.00
2011,02,24,03,23,-2.00
2011,02,24,03,24,-2.00
2011,02,24,03,25,-2.00
2011,02,24,03,26,-2.00
2011,02,24,03,27,-2.00
2011,02,24,03,28,-2.00
2011,02,24,03,29,-2.00
2011,02,24,03,30,-2.00
2011,02,24,03,31,-2.00
2011,02,24,03,32,-2.00
2011,02,24,03,33,-2.00
2011,02,24,03,34,-2.00
2011,02,24,03,35,-2.00
2011,02,24,03,36,-2.00
2011,02,24,03,37,-2.00
2011,02,24,03,38,-2.00
2011,02,24,03,39,-2.00
2011,02,24,03,40,-2.00
2011,02,24,03,41,-2.00
2011,02,24,03,42,-2.00
2011,02,24,03,43,-2.00
2011,02,24,03,44,-2.00
2011,02,24,03,45,-1.90
2011,02,24,03,46,-1.90
2011,02,24,03,47,-1.90
2011,02,24,03,48,-1.90
2011,02,24,03,49,-1.90
2011,02,24,03,50,-1.90
2011,02,24,03,51,-2.00
2011,02,24,03,52,-2.00
2011,02,24,03,53,-2.00
2011,02,24,03,54,-2.00
2011,02,24,03,55,-2.00
2011,02,24,03,56,-2.00
2011,02,24,03,57,-2.00
2011,02,24,03,58,-2.00
2011,02,24,03,59,-2.00
2011,02,24,04,00,-2.00
2011,02,24,04,01,-2.00
2011,02,24,04,02,-2.10
2011,02,24,04,03,-2.10
2011,02,24,04,04,-2.00
2011,02,24,04,05,-2.00
2011,02,24,04,06,-2.00
2011,02,24,04,07,-2.00
2011,02,24,04,08,-2.00
2011,02,24,04,09,-2.00
2011,02,24,04,10,-2.00
2011,02,24,04,11,-2.00
2011,02,24,04,12,-2.00
2011,02,24,04,13,-2.00
2011,02,24,04,14,-2.10
2011,02,24,04,15,-2.10
2011,02,24,04,16,-2.10
2011,02,24,04,17,-2.10
2011,02,24,04,18,-2.10
2011,02,24,04,19,-2.10
2011,02,24,04,20,-2.10
2011,02,24,04,21,-2.10
2011,02,24,04,22,-2.10
2011,02,24,04,23,-2.10
2011,02,24,04,24,-2.10
2011,02,24,04,25,-2.10
2011,02,24,04,26,-2.10
2011,02,24,04,27,-2.10
2011,02,24,04,28,-2.10
2011,02,24,04,29,-2.10
2011,02,24,04,30,-2.10
2011,02,24,04,31,-2.10
2011,02,24,04,32,-2.10
2011,02,24,04,33,-2.10
2011,02,24,04,34,-2.10
2011,02,24,04,35,-2.10
2011,02,24,04,36,-2.10
2011,02,24,04,37,-2.10
2011,02,24,04,38,-2.10
2011,02,24,04,39,-2.10
2011,02,24,04,40,-2.10
2011,02,24,04,41,-2.10
2011,02,24,04,42,-2.10
2011,02,24,04,43,-2.10
2011,02,24,04,44,-2.10
2011,02,24,04,45,-2.10
2011,02,24,04,46,-2.10
2011,02,24,04,47,-2.10
2011,02,24,04,48,-2.10
2011,02,24,04,49,-2.10
2011,02,24,04,50,-2.10
2011,02,24,04,51,-2.10
2011,02,24,04,52,-2.10
2011,02,24,04,53,-2.10
2011,02,24,04,54,-2.10
2011,02,24,04,55,-2.20
2011,02,24,04,56,-2.20
2011,02,24,04,57,-2.20
2011,02,24,04,58,-2.20
2011,02,24,04,59,-2.20
2011,02,24,05,00,-2.20
2011,02,24,05,01,-2.20
2011,02,24,05,02,-2.20
2011,02,24,05,03,-2.20
2011,02,24,05,04,-2.20
2011,02,24,05,05,-2.20
2011,02,24,05,06,-2.30
2011,02,24,05,07,-2.30
2011,02,24,05,08,-2.30
2011,02,24,05,09,-2.30
2011,02,24,05,10,-2.30
2011,02,24,05,11,-2.30
2011,02,24,05,12,-2.30
2011,02,24,05,13,-2.30
2011,02,24,05,14,-2.30
2011,02,24,05,15,-2.30
2011,02,24,05,16,-2.40
2011,02,24,05,17,-2.40
2011,02,24,05,18,-2.40
2011,02,24,05,19,-2.40
2011,02,24,05,20,-2.40
2011,02,24,05,21,-2.40
2011,02,24,05,22,-2.40
2011,02,24,05,23,-2.50
2011,02,24,05,24,-2.50
2011,02,24,05,25,-2.40
2011,02,24,05,26,-2.40
2011,02,24,05,27,-2.40
2011,02,24,05,28,-2.40
2011,02,24,05,29,-2.40
2011,02,24,05,30,-2.50
2011,02,24,05,31,-2.50
2011,02,24,05,32,-2.50
2011,02,24,05,33,-2.50
2011,02,24,05,34,-2.50
2011,02,24,05,35,-2.50
2011,02,24,05,36,-2.50
2011,02,24,05,37,-2.50
2011,02,24,05,38,-2.60
2011,02,24,05,39,-2.60
2011,02,24,05,40,-2.60
2011,02,24,05,41,-2.60
2011,02,24,05,42,-2.60
2011,02,24,05,43,-2.60
2011,02,24,05,44,-2.60
2011,02,24,05,45,-2.60
2011,02,24,05,46,-2.70
2011,02,24,05,47,-2.70
2011,02,24,05,48,-2.70
2011,02,24,05,49,-2.70
2011,02,24,05,50,-2.70
2011,02,24,05,51,-2.70
2011,02,24,05,52,-2.70
2011,02,24,05,53,-2.70
2011,02,24,05,54,-2.70
2011,02,24,05,55,-2.70
2011,02,24,05,56,-2.70
2011,02,24,05,57,-2.70
2011,02,24,05,58,-2.70
2011,02,24,05,59,-2.70
2011,02,24,06,00,-2.70
2011,02,24,06,01,-2.70
2011,02,24,06,02,-2.70
2011,02,24,06,03,-2.70
2011,02,24,06,04,-2.70
2011,02,24,06,05,-2.70
2011,02,24,06,06,-2.70
2011,02,24,06,07,-2.70
2011,02,24,06,08,-2.70
2011,02,24,06,09,-2.70
2011,02,24,06,10,-2.70
2011,02,24,06,11,-2.70
2011,02,24,06,12,-2.70
2011,02,24,06,13,-2.70
2011,02,24,06,14,-2.70
2011,02,24,06,15,-2.70
2011,02,24,06,16,-2.70
2011,02,24,06,17,-2.60
2011,02,24,06,18,-2.70
2011,02,24,06,19,-2.60
2011,02,24,06,20,-2.60
2011,02,24,06,21,-2.60
2011,02,24,06,22,-2.60
2011,02,24,06,23,-2.60
2011,02,24,06,24,-2.60
2011,02,24,06,25,-2.70
2011,02,24,06,26,-2.70
2011,02,24,06,27,-2.70
2011,02,24,06,28,-2.70
2011,02,24,06,29,-2.70
2011,02,24,06,30,-2.70
2011,02,24,06,31,-2.70
2011,02,24,06,32,-2.70
2011,02,24,06,33,-2.70
2011,02,24,06,34,-2.70
2011,02,24,06,35,-2.70
2011,02,24,06,36,-2.70
2011,02,24,06,37,-2.80
2011,02,24,06,38,-2.70
2011,02,24,06,39,-2.70
2011,02,24,06,40,-2.70
2011,02,24,06,41,-2.70
2011,02,24,06,42,-2.70
2011,02,24,06,43,-2.70
2011,02,24,06,44,-2.70
2011,02,24,06,45,-2.70
2011,02,24,06,46,-2.70
2011,02,24,06,47,-2.70
2011,02,24,06,48,-2.70
2011,02,24,06,49,-2.70
2011,02,24,06,50,-2.70
2011,02,24,06,51,-2.70
2011,02,24,06,52,-2.60
2011,02,24,06,53,-2.60
2011,02,24,06,54,-2.60
2011,02,24,06,55,-2.60
2011,02,24,06,56,-2.70
2011,02,24,06,57,-2.70
2011,02,24,06,58,-2.70
2011,02,24,06,59,-2.60
2011,02,24,07,00,-2.60
2011,02,24,07,01,-2.60
2011,02,24,07,02,-2.60
2011,02,24,07,03,-2.60
2011,02,24,07,04,-2.60
2011,02,24,07,05,-2.60
2011,02,24,07,06,-2.60
2011,02,24,07,07,-2.60
2011,02,24,07,08,-2.50
2011,02,24,07,09,-2.50
2011,02,24,07,10,-2.60
2011,02,24,07,11,-2.60
2011,02,24,07,12,-2.50
2011,02,24,07,13,-2.50
2011,02,24,07,14,-2.50
2011,02,24,07,15,-2.50
2011,02,24,07,16,-2.50
2011,02,24,07,17,-2.50
2011,02,24,07,18,-2.50
2011,02,24,07,19,-2.50
2011,02,24,07,20,-2.50
2011,02,24,07,21,-2.50
2011,02,24,07,22,-2.40
2011,02,24,07,23,-2.40
2011,02,24,07,24,-2.40
2011,02,24,07,25,-2.40
2011,02,24,07,26,-2.40
2011,02,24,07,27,-2.40
2011,02,24,07,28,-2.40
2011,02,24,07,29,-2.40
2011,02,24,07,30,-2.40
2011,02,24,07,31,-2.40
2011,02,24,07,32,-2.40
2011,02,24,07,33,-2.40
2011,02,24,07,34,-2.40
2011,02,24,07,35,-2.40
2011,02,24,07,36,-2.40
2011,02,24,07,37,-2.40
2011,02,24,07,38,-2.40
2011,02,24,07,39,-2.40
2011,02,24,07,40,-2.40
2011,02,24,07,41,-2.40
2011,02,24,07,42,-2.40
2011,02,24,07,43,-2.30
2011,02,24,07,44,-2.30
2011,02,24,07,45,-2.30
2011,02,24,07,46,-2.30
2011,02,24,07,47,-2.30
2011,02,24,07,48,-2.30
2011,02,24,07,49,-2.30
2011,02,24,07,50,-2.30
2011,02,24,07,51,-2.30
2011,02,24,07,52,-2.30
2011,02,24,07,53,-2.30
2011,02,24,07,54,-2.30
2011,02,24,07,55,-2.30
2011,02,24,07,56,-2.30
2011,02,24,07,57,-2.30
2011,02,24,07,58,-2.30
2011,02,24,07,59,-2.30
2011,02,24,08,00,-2.30
2011,02,24,08,01,-2.30
2011,02,24,08,02,-2.30
2011,02,24,08,03,-2.30
2011,02,24,08,04,-2.30
2011,02,24,08,05,-2.30
2011,02,24,08,06,-2.30
2011,02,24,08,07,-2.30
2011,02,24,08,08,-2.30
2011,02,24,08,09,-2.30
2011,02,24,08,10,-2.30
2011,02,24,08,11,-2.30
2011,02,24,08,12,-2.30
2011,02,24,08,13,-2.30
2011,02,24,08,14,-2.30
2011,02,24,08,15,-2.30
2011,02,24,08,16,-2.30
2011,02,24,08,17,-2.30
2011,02,24,08,18,-2.30
2011,02,24,08,19,-2.30
2011,02,24,08,20,-2.30
2011,02,24,08,21,-2.30
2011,02,24,08,22,-2.30
2011,02,24,08,23,-2.30
2011,02,24,08,24,-2.30
2011,02,24,08,25,-2.30
2011,02,24,08,26,-2.30
2011,02,24,08,27,-2.30
2011,02,24,08,28,-2.30
2011,02,24,08,29,-2.20
2011,02,24,08,30,-2.20
2011,02,24,08,31,-2.20
2011,02,24,08,32,-2.20
2011,02,24,08,33,-2.20
2011,02,24,08,34,-2.20
2011,02,24,08,35,-2.20
2011,02,24,08,36,-2.20
2011,02,24,08,37,-2.20
2011,02,24,08,38,-2.20
2011,02,24,08,39,-2.20
2011,02,24,08,40,-2.20
2011,02,24,08,41,-2.20
2011,02,24,08,42,-2.20
2011,02,24,08,43,-2.20
2011,02,24,08,44,-2.20
2011,02,24,08,45,-2.20
2011,02,24,08,46,-2.20
2011,02,24,08,47,-2.20
2011,02,24,08,48,-2.20
2011,02,24,08,49,-2.20
2011,02,24,08,50,-2.20
2011,02,24,08,51,-2.20
2011,02,24,08,52,-2.20
2011,02,24,08,53,-2.10
2011,02,24,08,54,-2.10
2011,02,24,08,55,-2.10
2011,02,24,08,56,-2.10
2011,02,24,08,57,-2.10
2011,02,24,08,58,-2.10
2011,02,24,08,59,-2.10
2011,02,24,09,00,-2.10
2011,02,24,09,01,-2.10
2011,02,24,09,02,-2.10
2011,02,24,09,03,-2.00
2011,02,24,09,04,-2.00
2011,02,24,09,05,-2.00
2011,02,24,09,06,-2.00
2011,02,24,09,07,-2.00
2011,02,24,09,08,-2.00
2011,02,24,09,09,-1.90
2011,02,24,09,10,-1.90
2011,02,24,09,11,-1.90
2011,02,24,09,12,-1.90
2011,02,24,09,13,-1.90
2011,02,24,09,14,-1.90
2011,02,24,09,15,-1.90
2011,02,24,09,16,-1.90
2011,02,24,09,17,-1.90
2011,02,24,09,18,-1.80
2011,02,24,09,19,-1.80
2011,02,24,09,20,-1.80
2011,02,24,09,21,-1.80
2011,02,24,09,22,-1.80
2011,02,24,09,23,-1.80
2011,02,24,09,24,-1.80
2011,02,24,09,25,-1.80
2011,02,24,09,26,-1.80
2011,02,24,09,27,-1.80
2011,02,24,09,28,-1.80
2011,02,24,09,29,-1.80
2011,02,24,09,30,-1.70
2011,02,24,09,31,-1.70
2011,02,24,09,32,-1.70
2011,02,24,09,33,-1.70
2011,02,24,09,34,-1.70
2011,02,24,09,35,-1.70
2011,02,24,09,36,-1.70
2011,02,24,09,37,-1.70
2011,02,24,09,38,-1.70
2011,02,24,09,39,-1.70
2011,02,24,09,40,-1.70
2011,02,24,09,41,-1.60
2011,02,24,09,42,-1.60
2011,02,24,09,43,-1.60
2011,02,24,09,44,-1.60
2011,02,24,09,45,-1.60
2011,02,24,09,46,-1.60
2011,02,24,09,47,-1.60
2011,02,24,09,48,-1.60
2011,02,24,09,49,-1.60
2011,02,24,09,50,-1.50
2011,02,24,09,51,-1.50
2011,02,24,09,52,-1.50
2011,02,24,09,53,-1.50
2011,02,24,09,54,-1.50
2011,02,24,09,55,-1.50
2011,02,24,09,56,-1.40
2011,02,24,09,57,-1.40
2011,02,24,09,58,-1.40
2011,02,24,09,59,-1.40
2011,02,24,10,00,-1.40
2011,02,24,10,01,-1.40
2011,02,24,10,02,-1.30
2011,02,24,10,03,-1.30
2011,02,24,10,04,-1.30
2011,02,24,10,05,-1.30
2011,02,24,10,06,-1.30
2011,02,24,10,07,-1.30
2011,02,24,10,08,-1.30
2011,02,24,10,09,-1.30
2011,02,24,10,10,-1.30
2011,02,24,10,11,-1.30
2011,02,24,10,12,-1.20
2011,02,24,10,13,-1.20
2011,02,24,10,14,-1.20
2011,02,24,10,15,-1.20
2011,02,24,10,16,-1.20
2011,02,24,10,17,-1.20
2011,02,24,10,18,-1.20
2011,02,24,10,19,-1.20
2011,02,24,10,20,-1.10
2011,02,24,10,21,-1.10
2011,02,24,10,22,-1.10
2011,02,24,10,23,-1.10
2011,02,24,10,24,-1.10
2011,02,24,10,25,-1.10
2011,02,24,10,26,-1.10
2011,02,24,10,27,-1.10
2011,02,24,10,28,-1.10
2011,02,24,10,29,-1.10
2011,02,24,10,30,-1.00
2011,02,24,10,31,-1.00
2011,02,24,10,32,-1.00
2011,02,24,10,33,-0.90
2011,02,24,10,34,-0.90
2011,02,24,10,35,-0.90
2011,02,24,10,36,-0.90
2011,02,24,10,37,-0.90
2011,02,24,10,38,-0.90
2011,02,24,10,39,-0.80
2011,02,24,10,40,-0.80
2011,02,24,10,41,-0.70
2011,02,24,10,42,-0.70
2011,02,24,10,43,-0.70
2011,02,24,10,44,-0.60
2011,02,24,10,45,-0.50
2011,02,24,10,46,-0.40
2011,02,24,10,47,-0.30
2011,02,24,10,48,-0.30
2011,02,24,10,49,-0.20
2011,02,24,10,50,-0.20
2011,02,24,10,51,-0.20
2011,02,24,10,52,-0.20
2011,02,24,10,53,-0.20
2011,02,24,10,54,-0.20
2011,02,24,10,55,-0.20
2011,02,24,10,56,-0.20
2011,02,24,10,57,-0.20
2011,02,24,10,58,-0.20
2011,02,24,10,59,-0.10
2011,02,24,11,00,-0.10
2011,02,24,11,01,0.00
2011,02,24,11,02,0.10
2011,02,24,11,03,0.20
2011,02,24,11,04,0.30
2011,02,24,11,05,0.30
2011,02,24,11,06,0.40
2011,02,24,11,07,0.40
2011,02,24,11,08,0.50
2011,02,24,11,09,0.50
2011,02,24,11,10,0.60
2011,02,24,11,11,0.70
2011,02,24,11,12,0.70
2011,02,24,11,13,0.70
2011,02,24,11,14,0.60
2011,02,24,11,15,0.60
2011,02,24,11,16,0.70
2011,02,24,11,17,0.70
2011,02,24,11,18,0.70
2011,02,24,11,19,0.70
2011,02,24,11,20,0.70
2011,02,24,11,21,0.60
2011,02,24,11,22,0.50
2011,02,24,11,23,0.40
2011,02,24,11,24,0.30
2011,02,24,11,25,0.40
2011,02,24,11,26,0.40
2011,02,24,11,27,0.50
2011,02,24,11,28,0.50
2011,02,24,11,29,0.60
2011,02,24,11,30,0.60
2011,02,24,11,31,0.60
2011,02,24,11,32,0.60
2011,02,24,11,33,0.50
2011,02,24,11,34,0.50
2011,02,24,11,35,0.50
2011,02,24,11,36,0.50
2011,02,24,11,37,0.50
2011,02,24,11,38,0.50
2011,02,24,11,39,0.50
2011,02,24,11,40,0.50
2011,02,24,11,41,0.40
2011,02,24,11,42,0.40
2011,02,24,11,43,0.40
2011,02,24,11,44,0.40
2011,02,24,11,45,0.40
2011,02,24,11,46,0.40
2011,02,24,11,47,0.40
2011,02,24,11,48,0.40
2011,02,24,11,49,0.40
2011,02,24,11,50,0.40
2011,02,24,11,51,0.40
2011,02,24,11,52,0.40
2011,02,24,11,53,0.40
2011,02,24,11,54,0.40
2011,02,24,11,55,0.40
2011,02,24,11,56,0.40
2011,02,24,11,57,0.50
2011,02,24,11,58,0.50
2011,02,24,11,59,0.60
2011,02,24,12,00,0.70
2011,02,24,12,01,0.80
2011,02,24,12,02,0.80
2011,02,24,12,03,0.80
2011,02,24,12,04,0.90
2011,02,24,12,05,1.00
2011,02,24,12,06,0.90
2011,02,24,12,07,0.90
2011,02,24,12,08,1.00
2011,02,24,12,09,1.10
2011,02,24,12,10,1.10
2011,02,24,12,11,1.10
2011,02,24,12,12,1.10
2011,02,24,12,13,1.00
2011,02,24,12,14,0.90
2011,02,24,12,15,0.80
2011,02,24,12,16,0.80
2011,02,24,12,17,0.80
2011,02,24,12,18,0.80
2011,02,24,12,19,0.80
2011,02,24,12,20,0.80
2011,02,24,12,21,0.90
2011,02,24,12,22,0.90
2011,02,24,12,23,0.90
2011,02,24,12,24,0.90
2011,02,24,12,25,0.80
2011,02,24,12,26,0.80
2011,02,24,12,27,0.80
2011,02,24,12,28,0.80
2011,02,24,12,29,0.80
2011,02,24,12,30,0.80
2011,02,24,12,31,0.80
2011,02,24,12,32,0.80
2011,02,24,12,33,0.80
2011,02,24,12,34,0.80
2011,02,24,12,35,0.80
2011,02,24,12,36,0.80
2011,02,24,12,37,0.80
2011,02,24,12,38,0.80
2011,02,24,12,39,0.80
2011,02,24,12,40,0.80
2011,02,24,12,41,0.80
2011,02,24,12,42,0.80
2011,02,24,12,43,0.80
2011,02,24,12,44,0.80
2011,02,24,12,45,0.80
2011,02,24,12,46,0.80
2011,02,24,12,47,0.90
2011,02,24,12,48,0.90
2011,02,24,12,49,1.00
2011,02,24,12,50,1.00
2011,02,24,12,51,1.10
2011,02,24,12,52,1.10
2011,02,24,12,53,1.10
2011,02,24,12,54,1.10
2011,02,24,12,55,1.20
2011,02,24,12,56,1.20
2011,02,24,12,57,1.20
2011,02,24,12,58,1.30
2011,02,24,12,59,1.30
2011,02,24,13,00,1.30
2011,02,24,13,01,1.30
2011,02,24,13,02,1.30
2011,02,24,13,03,1.30
2011,02,24,13,04,1.20
2011,02,24,13,05,1.20
2011,02,24,13,06,1.20
2011,02,24,13,07,1.20
2011,02,24,13,08,1.20
2011,02,24,13,09,1.20
2011,02,24,13,10,1.10
2011,02,24,13,11,1.10
2011,02,24,13,12,1.10
2011,02,24,13,13,1.10
2011,02,24,13,14,1.10
2011,02,24,13,15,1.00
2011,02,24,13,16,1.00
2011,02,24,13,17,1.00
2011,02,24,13,18,1.10
2011,02,24,13,19,1.00
2011,02,24,13,20,0.80
2011,02,24,13,21,0.70
2011,02,24,13,22,0.70
2011,02,24,13,23,0.70
2011,02,24,13,24,0.80
2011,02,24,13,25,0.80
2011,02,24,13,26,0.90
2011,02,24,13,27,0.80
2011,02,24,13,28,0.80
2011,02,24,13,29,0.80
2011,02,24,13,30,0.90
2011,02,24,13,31,0.90
2011,02,24,13,32,0.90
2011,02,24,13,33,1.00
2011,02,24,13,34,1.10
2011,02,24,13,35,1.10
2011,02,24,13,36,1.20
2011,02,24,13,37,1.20
2011,02,24,13,38,1.30
2011,02,24,13,39,1.30
2011,02,24,13,40,1.30
2011,02,24,13,41,1.30
2011,02,24,13,42,1.30
2011,02,24,13,43,1.30
2011,02,24,13,44,1.30
2011,02,24,13,45,1.40
2011,02,24,13,46,1.40
2011,02,24,13,47,1.40
2011,02,24,13,48,1.40
2011,02,24,13,49,1.30
2011,02,24,13,50,1.20
2011,02,24,13,51,1.10
2011,02,24,13,52,1.00
2011,02,24,13,53,0.90
2011,02,24,13,54,0.90
2011,02,24,13,55,1.00
2011,02,24,13,56,1.00
2011,02,24,13,57,1.10
2011,02,24,13,58,1.10
2011,02,24,13,59,1.10
2011,02,24,14,00,1.10
2011,02,24,14,01,1.20
2011,02,24,14,02,1.20
2011,02,24,14,03,1.20
2011,02,24,14,04,1.10
2011,02,24,14,05,1.10
2011,02,24,14,06,1.10
2011,02,24,14,07,1.00
2011,02,24,14,08,1.10
2011,02,24,14,09,1.10
2011,02,24,14,10,1.10
2011,02,24,14,11,1.10
2011,02,24,14,12,1.10
2011,02,24,14,13,1.10
2011,02,24,14,14,1.10
2011,02,24,14,15,1.10
2011,02,24,14,16,1.10
2011,02,24,14,17,1.10
2011,02,24,14,18,1.00
2011,02,24,14,19,1.00
2011,02,24,14,20,1.00
2011,02,24,14,21,1.00
2011,02,24,14,22,0.90
2011,02,24,14,23,0.90
2011,02,24,14,24,0.90
2011,02,24,14,25,0.90
2011,02,24,14,26,1.00
2011,02,24,14,27,0.90
2011,02,24,14,28,0.90
2011,02,24,14,29,0.90
2011,02,24,14,30,0.90
2011,02,24,14,31,0.90
2011,02,24,14,32,0.90
2011,02,24,14,33,0.80
2011,02,24,14,34,0.80
2011,02,24,14,35,0.80
2011,02,24,14,36,0.80
2011,02,24,14,37,0.90
2011,02,24,14,38,0.90
2011,02,24,14,39,1.00
2011,02,24,14,40,1.00
2011,02,24,14,41,1.10
2011,02,24,14,42,1.10
2011,02,24,14,43,1.10
2011,02,24,14,44,1.00
2011,02,24,14,45,1.00
2011,02,24,14,46,0.90
2011,02,24,14,47,0.90
2011,02,24,14,48,0.80
2011,02,24,14,49,0.80
2011,02,24,14,50,0.70
2011,02,24,14,51,0.70
2011,02,24,14,52,0.70
2011,02,24,14,53,0.70
2011,02,24,14,54,0.70
2011,02,24,14,55,0.70
2011,02,24,14,56,0.70
2011,02,24,14,57,0.80
2011,02,24,14,58,0.80
2011,02,24,14,59,0.80
2011,02,24,15,00,0.80
2011,02,24,15,01,0.90
2011,02,24,15,02,0.90
2011,02,24,15,03,0.90
2011,02,24,15,04,0.90
2011,02,24,15,05,0.90
2011,02,24,15,06,0.90
2011,02,24,15,07,0.90
2011,02,24,15,08,1.00
2011,02,24,15,09,1.10
2011,02,24,15,10,1.10
2011,02,24,15,11,1.00
2011,02,24,15,12,1.10
2011,02,24,15,13,1.10
2011,02,24,15,14,1.20
2011,02,24,15,15,1.20
2011,02,24,15,16,1.30
2011,02,24,15,17,1.30
2011,02,24,15,18,1.40
2011,02,24,15,19,1.40
2011,02,24,15,20,1.40
2011,02,24,15,21,1.40
2011,02,24,15,22,1.40
2011,02,24,15,23,1.50
2011,02,24,15,24,1.50
2011,02,24,15,25,1.40
2011,02,24,15,26,1.30
2011,02,24,15,27,1.30
2011,02,24,15,28,1.20
2011,02,24,15,29,1.10
2011,02,24,15,30,1.00
2011,02,24,15,31,1.00
2011,02,24,15,32,0.90
2011,02,24,15,33,0.90
2011,02,24,15,34,0.90
2011,02,24,15,35,0.90
2011,02,24,15,36,0.90
2011,02,24,15,37,1.00
2011,02,24,15,38,1.00
2011,02,24,15,39,1.00
2011,02,24,15,40,1.00
2011,02,24,15,41,1.10
2011,02,24,15,42,1.10
2011,02,24,15,43,1.10
2011,02,24,15,44,1.20
2011,02,24,15,45,1.20
2011,02,24,15,46,1.10
2011,02,24,15,47,1.10
2011,02,24,15,48,1.10
2011,02,24,15,49,1.10
2011,02,24,15,50,1.10
2011,02,24,15,51,1.10
2011,02,24,15,52,1.10
2011,02,24,15,53,1.20
2011,02,24,15,54,1.20
2011,02,24,15,55,1.10
2011,02,24,15,56,1.10
2011,02,24,15,57,1.10
2011,02,24,15,58,1.10
2011,02,24,15,59,1.10
2011,02,24,16,00,1.10
2011,02,24,16,01,1.10
2011,02,24,16,02,1.10
2011,02,24,16,03,1.10
2011,02,24,16,04,1.10
2011,02,24,16,05,1.10
2011,02,24,16,06,1.00
2011,02,24,16,07,1.00
2011,02,24,16,08,0.90
2011,02,24,16,09,0.90
2011,02,24,16,10,0.90
2011,02,24,16,11,0.90
2011,02,24,16,12,1.00
2011,02,24,16,13,1.00
2011,02,24,16,14,1.00
2011,02,24,16,15,0.90
2011,02,24,16,16,0.90
2011,02,24,16,17,0.90
2011,02,24,16,18,1.00
2011,02,24,16,19,1.00
2011,02,24,16,20,1.10
2011,02,24,16,21,1.10
2011,02,24,16,22,1.10
2011,02,24,16,23,1.00
2011,02,24,16,24,1.00
2011,02,24,16,25,0.90
2011,02,24,16,26,0.90
2011,02,24,16,27,0.80
2011,02,24,16,28,0.80
2011,02,24,16,29,0.70
2011,02,24,16,30,0.70
2011,02,24,16,31,0.70
2011,02,24,16,32,0.70
2011,02,24,16,33,0.70
2011,02,24,16,34,0.70
2011,02,24,16,35,0.70
2011,02,24,16,36,0.70
2011,02,24,16,37,0.80
2011,02,24,16,38,0.80
2011,02,24,16,39,0.80
2011,02,24,16,40,0.80
2011,02,24,16,41,0.90
2011,02,24,16,42,0.90
2011,02,24,16,43,0.90
2011,02,24,16,44,0.90
2011,02,24,16,45,0.90
2011,02,24,16,46,0.90
2011,02,24,16,47,0.90
2011,02,24,16,48,0.90
2011,02,24,16,49,0.90
2011,02,24,16,50,0.80
2011,02,24,16,51,0.90
2011,02,24,16,52,0.90
2011,02,24,16,53,0.80
2011,02,24,16,54,0.80
2011,02,24,16,55,0.90
2011,02,24,16,56,0.90
2011,02,24,16,57,0.90
2011,02,24,16,58,0.80
2011,02,24,16,59,0.80
2011,02,24,17,00,0.80
2011,02,24,17,01,0.80
2011,02,24,17,02,0.70
2011,02,24,17,03,0.70
2011,02,24,17,04,0.70
2011,02,24,17,05,0.60
2011,02,24,17,06,0.60
2011,02,24,17,07,0.60
2011,02,24,17,08,0.60
2011,02,24,17,09,0.60
2011,02,24,17,10,0.60
2011,02,24,17,11,0.60
2011,02,24,17,12,0.50
2011,02,24,17,13,0.50
2011,02,24,17,14,0.50
2011,02,24,17,15,0.50
2011,02,24,17,16,0.40
2011,02,24,17,17,0.50
2011,02,24,17,18,0.50
2011,02,24,17,19,0.40
2011,02,24,17,20,0.50
2011,02,24,17,21,0.50
2011,02,24,17,22,0.50
2011,02,24,17,23,0.50
2011,02,24,17,24,0.50
2011,02,24,17,25,0.40
2011,02,24,17,26,0.40
2011,02,24,17,27,0.40
2011,02,24,17,28,0.40
2011,02,24,17,29,0.40
2011,02,24,17,30,0.40
2011,02,24,17,31,0.40
2011,02,24,17,32,0.40
2011,02,24,17,33,0.40
2011,02,24,17,34,0.40
2011,02,24,17,35,0.40
2011,02,24,17,36,0.40
2011,02,24,17,37,0.40
2011,02,24,17,38,0.30
2011,02,24,17,39,0.30